Regional Weather Roundup
Issued by NWS

Home | Current Version | Previous Version | Text Only | Print | Product List | Glossary Off
Versions: 1 2 3 4 5 6 7 8 9 10 11 12 13 14 15 16 17 18 19 20 21 22 23 24 25 26 27 28 29 30 31 32 33 34 35 36 37 38 39 40 41 42 43 44 45 46 47 48 49 50

000
ASUS43 KMKX 031411
RWRWI

WISCONSIN REGIONAL WEATHER ROUNDUP
NATIONAL WEATHER SERVICE MILWAUKEE/SULLIVAN WI
900 AM CDT MON AUG 03 2015

NOTE: "FAIR" INDICATES FEW OR NO CLOUDS BELOW 12,000 FEET WITH NO
SIGNIFICANT WEATHER AND/OR OBSTRUCTIONS TO VISIBILITY.

WIZ001-002-006>008-014>016-023>028-031500-
NORTHWEST WISCONSIN

CITY           SKY/WX    TMP DP  RH WIND       PRES   REMARKS
SUPERIOR ARPT  SUNNY     65  53  66 NW13G20   29.82R
ASHLAND        MOSUNNY   64  52  64 W9G17     29.80R
HAYWARD        SUNNY     63  49  60 NW7       29.84S
SIREN          SUNNY     64  50  59 NW10G17   29.87R
CUMBERLAND     SUNNY     63  46  55 NW14G22   29.86S
RICE LAKE      MOSUNNY   63  52  66 W6        29.87S
CHETEK         MOSUNNY   66  51  58 W8        29.86S
LADYSMITH      CLOUDY    63  50  63 W12       29.86R
EAU CLAIRE     SUNNY     67  52  58 W8        29.86R
MENOMONIE      SUNNY     67  50  53 W12       29.88R
NEW RICHMOND   SUNNY     66  53  62 W8        29.89R
OSCEOLA        SUNNY     66  53  63 W12       29.92R
$$

WIZ003>005-009-010-017-018-031500-
NORTH CENTRAL WISCONSIN

CITY           SKY/WX    TMP DP  RH WIND       PRES   REMARKS
MANITOWISH WTR CLOUDY    60  50  69 W8        29.80R
ARBOR VITAE    CLOUDY    60  51  72 W7        29.80S
WOODRUFF       CLOUDY    60  51  72 W7        29.80S
RHINELANDER    SUNNY     63  52  67 W9        29.82R
EAGLE RIVER    CLOUDY    61  49  64 W7        29.79S
LAND O LAKES   PTSUNNY   64  49  59 W10       29.79S
PHILLIPS       CLOUDY    59  50  73 W3        29.82S
TOMAHAWK       SUNNY     61  50  66 W9        29.83R
MEDFORD        CLOUDY    62  50  65 NW7       29.84S
MERRILL        NOT AVBL
$$

WIZ029-030-035-036-043>047-031500-
CENTRAL WISCONSIN

CITY           SKY/WX    TMP DP  RH WIND       PRES   REMARKS
WAUSAU         SUNNY     64  49  57 W10       29.82R
MOSINEE        SUNNY     64  50  59 NW9       29.85R
MARSHFIELD     SUNNY     66  48  52 NW12      29.85R
STEVENS POINT  SUNNY     63  49  59 W8        29.84S
WAUPACA        SUNNY     69  51  52 W8        29.83R
WAUTOMA        SUNNY     70  48  45 NW10      29.85R
WISC RAPIDS    SUNNY     67  47  48 NW10      29.86R
CAMP DOUGLAS   SUNNY     68  54  60 W12       29.86R
$$

WIZ011>013-019>022-031-037>040-048>050-031500-
NORTHEAST WISCONSIN

CITY           SKY/WX    TMP DP  RH WIND       PRES   REMARKS
ANTIGO         MOSUNNY   62  52  70 W9        29.82S
SHAWANO        SUNNY     66  56  69 W6        29.81R
OCONTO         PTSUNNY   65  55  69 W8        29.78R
STURGEON BAY   PTSUNNY   64  52  63 W8        29.80S
GREEN BAY      SUNNY     66  57  72 W10       29.80R
MANITOWOC      SUNNY     68  56  65 MISG      29.80S
APPLETON       MOSUNNY   64  52  63 W10       29.82R
CLINTONVILLE   SUNNY     64  52  63 W8        29.81S
OSHKOSH        SUNNY     66  55  67 W10       29.82R
$$

WIZ032>034-041-042-053>061-031500-
SOUTHWEST WISCONSIN

CITY           SKY/WX    TMP DP  RH WIND       PRES   REMARKS
LA CROSSE      SUNNY     71  53  52 W3        29.88S
SPARTA         SUNNY     69  49  48 W6        29.88R
VIROQUA        SUNNY     67  54  62 W6        29.90S
BOSCOBEL       SUNNY     70  58  65 CALM      29.89S
PRAIRIE DU CHI SUNNY     69  53  57 W3        29.90S
PLATTEVILLE    SUNNY     71  54  55 NW7       29.91R
$$

WIZ056-057-062-063-064-067-068-031500-
SOUTH CENTRAL WISCONSIN

CITY           SKY/WX    TMP DP  RH WIND       PRES   REMARKS
REEDSBURG      SUNNY     69  51  51 W10       29.87S
BARABOO/DELLS  SUNNY     69  47  44 W8        29.87S
LONE ROCK      SUNNY     69  53  56 NW7       29.89S
MINERAL POINT  SUNNY     70  52  52 NW7       29.91R
MADISON        SUNNY     71  52  50 NW6       29.86R
MIDDLETON      SUNNY     71  50  46 W9        29.88S
WATERTOWN      SUNNY     68  54  61 NW9       29.85R
MONROE         SUNNY     70  50  49 NW8       29.89R
JANESVILLE     SUNNY     72  54  53 NW8       29.86S
$$

WIZ051-052-058>065-066-070>072-031500-
SOUTHEAST WISCONSIN

CITY           SKY/WX    TMP DP  RH WIND       PRES   REMARKS
MILWAUKEE      MOSUNNY   72  52  49 W9        29.83S
WAUKESHA       SUNNY     68  54  60 W8        29.86
MILWAUKEE/TIMM SUNNY     72  52  49 W7        29.84R
RACINE         SUNNY     70  57  63 W9        29.85R
BURLINGTON     SUNNY     70  52  53 NW10      29.85S
KENOSHA        SUNNY     70  58  65 NW9       29.85R
FOND DU LAC    SUNNY     68  55  63 W10       29.83R
SHEBOYGAN      SUNNY     68  60  75 W8        29.81S
WEST BEND      SUNNY     66  54  63 W10       29.83S
JUNEAU         SUNNY     66  53  63 W7        29.86R
$$

LSZ147-162-031500-
LAKE SUPERIOR

STATION/POSITION TIME  TEMP    WIND        PRES    WAVE
                       AIR SEA DIR/SP/G            HT/PER
                 (UTC) (F)     (DEG/KT/KT) (MB)    (FT/S)
W MID LAKE BUOY  1350   58 55  270/ 14/ 16 1006.7R   2/ 3
DEVILS ISLAND    1400   59     240/ 15/ 18 1008.3R
PORT WING        1340   61     250/  9/ 13 1009.1R
SAXON HARBOR     1340   62                 1008.1R
$$

LMZ867-665-643>646-031500-
LAKE MICHIGAN

STATION/POSITION TIME  TEMP    WIND        PRES    WAVE
                       AIR SEA DIR/SP/G            HT/PER
                 (UTC) (F)     (DEG/KT/KT) (MB)    (FT/S)
CHAMBERS ISLAND  1300   63     250/  3/  7 1007.8R
S GREEN BAY BUOY 1400   62 67  230/  8/ 10 1010.2R
N MID LAKE BUOY  1350   63 68  280/ 14/ 16 1007.0R   2/ 4
NORTHPORT PIER   1300   65     300/  9/ 14 1007.5R
SISTER BAY       1318   67     320/ 11/ 13   N/A
ALGOMA LAKESHORE 1212           CALM  /  3   N/A
KEWAUNEE LAKESHO 1300   64     280/  5/  7 1007.9R
SHEBOYGAN LAKESH 1400   68     280/ 10/ 10 1009.3R
PORT WASHINGTON  1300   69     300/  5/ 10 1010.2R
ATWATER BUOY     1400   67 65  270/  6/  8 1011.5R
MILWAUKEE LAKESH 1300   68     300/  8/ 10   N/A
KENOSHA   LAKESH 1400   70     310/ 12/ 15 1010.2R
$$

TC  - TEMPERATURE IN CELSIUS
VSB - VISIBILITY IN STATUTE MILES
WCI - WIND CHILL INDEX
HX  - HEAT INDEX




USA.gov is the U.S. government's official web portal to all federal, state and local government web resources and services.